timestamp,surface_pressure_avg,surface_temp_avg,battery_voltage,lat,long
2019-02-04 00:00:00+00:00,316.1613,0.7,12.97,47.84626,-54.09684
2019-02-04 00:10:00+00:00,318.1113,0.79,12.89,47.84626,-54.09684
2019-02-04 00:20:00+00:00,316.0213,0.87,12.97,47.84626,-54.09684
2019-02-04 00:30:00+00:00,310.403,0.9,12.97,47.84626,-54.09684
2019-02-04 00:40:00+00:00,310.743,0.9,12.97,47.84626,-54.09684
2019-02-04 00:50:00+00:00,308.6914,0.8,12.97,47.84626,-54.09684
2019-02-04 01:00:00+00:00,305.738,0.7,12.89,47.84626,-54.09684
2019-02-04 01:10:00+00:00,297.5447,0.7,12.81,47.84626,-54.09684
2019-02-04 01:20:00+00:00,295.2114,0.7,12.97,47.84626,-54.09684
2019-02-04 01:30:00+00:00,286.8547,0.69,12.97,47.84626,-54.09684
2019-02-04 01:40:00+00:00,275.0048,0.7,12.97,47.84626,-54.09684
2019-02-04 01:50:00+00:00,266.1881,0.69,12.97,47.84626,-54.09684
2019-02-04 02:00:00+00:00,261.7281,0.66,12.89,47.84626,-54.09684
2019-02-04 02:10:00+00:00,253.2597,0.6,12.81,47.84626,-54.09684
2019-02-04 02:20:00+00:00,245.0497,0.5,12.89,47.84626,-54.09684
2019-02-04 02:30:00+00:00,243.7547,0.3,12.89,47.84626,-54.09684
2019-02-04 02:40:00+00:00,236.2531,0.29,12.97,47.84626,-54.09684
2019-02-04 02:50:00+00:00,224.8564,0.1,12.97,47.84626,-54.09684
2019-02-04 03:00:00+00:00,218.9464,0.0,12.89,47.84626,-54.09684
2019-02-04 03:10:00+00:00,215.7998,-0.1,12.81,47.84626,-54.09684
2019-02-04 03:20:00+00:00,208.2981,-0.2,12.89,47.84626,-54.09684
2019-02-04 03:30:00+00:00,203.1281,-0.3,12.89,47.84626,-54.09684
2019-02-04 03:40:00+00:00,204.0581,-0.4,12.97,47.84626,-54.09684
2019-02-04 03:50:00+00:00,200.4714,-0.4,12.97,47.84626,-54.09684
2019-02-04 04:00:00+00:00,197.4631,-0.4,12.81,47.84626,-54.09684
2019-02-04 04:10:00+00:00,197.2048,-0.4,12.81,47.84626,-54.09684
2019-02-04 04:20:00+00:00,196.0748,-0.4,12.89,47.84626,-54.09684
2019-02-04 04:30:00+00:00,192.4164,-0.4,12.89,47.84626,-54.09684
2019-02-04 04:40:00+00:00,188.9515,-0.33,12.89,47.84626,-54.09684
2019-02-04 04:50:00+00:00,189.0281,-0.3,12.97,47.84626,-54.09684
2019-02-04 05:00:00+00:00,191.8598,-0.3,12.81,47.84626,-54.09684
2019-02-04 05:10:00+00:00,192.4781,-0.23,12.73,47.84626,-54.09684
2019-02-04 05:20:00+00:00,191.1382,-0.2,12.89,47.84626,-54.09684
2019-02-04 05:30:00+00:00,195.0981,-0.2,12.89,47.84626,-54.09684
2019-02-04 05:40:00+00:00,201.1598,-0.2,12.89,47.84626,-54.09684
2019-02-04 05:50:00+00:00,200.4565,-0.2,12.89,47.84626,-54.09684
2019-02-04 06:00:00+00:00,201.9548,-0.2,12.81,47.84626,-54.09684
2019-02-04 06:10:00+00:00,207.7714,-0.2,12.73,47.84626,-54.09684
2019-02-04 06:20:00+00:00,212.9214,-0.2,12.81,47.84626,-54.09684
2019-02-04 06:30:00+00:00,218.3481,-0.2,12.81,47.84626,-54.09684
2019-02-04 06:40:00+00:00,225.5314,-0.2,12.89,47.84626,-54.09684
2019-02-04 06:50:00+00:00,234.9864,-0.2,12.89,47.84626,-54.09684
2019-02-04 07:00:00+00:00,244.9164,-0.2,12.81,47.84626,-54.09684
2019-02-04 07:10:00+00:00,248.808,-0.3,12.73,47.84626,-54.09684
2019-02-04 07:20:00+00:00,249.2531,-0.4,12.81,47.84626,-54.09684
2019-02-04 07:30:00+00:00,253.3497,-0.42,12.81,47.84626,-54.09684
2019-02-04 07:40:00+00:00,258.3364,-0.4,12.89,47.84626,-54.09684
2019-02-04 07:50:00+00:00,259.4048,-0.39,12.89,47.84626,-54.09684
2019-02-04 08:00:00+00:00,265.2847,-0.3,12.81,47.84626,-54.09684
2019-02-04 08:10:00+00:00,271.0131,-0.23,12.73,47.84626,-54.09684
2019-02-04 08:20:00+00:00,270.9264,-0.27,12.81,47.84626,-54.09684
2019-02-04 08:30:00+00:00,274.7731,-0.23,12.81,47.84626,-54.09684
2019-02-04 08:40:00+00:00,290.243,-0.2,12.89,47.84626,-54.09684
2019-02-04 08:50:00+00:00,299.0831,0.42,12.89,47.84626,-54.09684
2019-02-04 09:00:00+00:00,299.1213,0.6,12.81,47.84626,-54.09684
2019-02-04 09:10:00+00:00,303.7563,0.57,12.73,47.84626,-54.09684
2019-02-04 09:20:00+00:00,312.1663,0.63,12.81,47.84626,-54.09684
2019-02-04 09:30:00+00:00,314.8547,0.73,12.81,47.84626,-54.09684
2019-02-04 09:40:00+00:00,322.2547,0.7,12.81,47.84626,-54.09684
2019-02-04 09:50:00+00:00,332.678,0.7,12.89,47.84626,-54.09684
2019-02-04 10:00:00+00:00,339.1614,0.6,12.73,47.84626,-54.09684
2019-02-04 10:10:00+00:00,336.2863,0.4,12.73,47.84626,-54.09684
2019-02-04 10:20:00+00:00,341.8346,0.7,12.81,47.84626,-54.09684
2019-02-04 10:30:00+00:00,351.4197,0.8,12.81,47.84626,-54.09684
2019-02-04 10:40:00+00:00,355.4913,0.8,12.81,47.84626,-54.09684
2019-02-04 10:50:00+00:00,354.6647,0.7,12.81,47.84626,-54.09684
2019-02-04 11:00:00+00:00,363.7763,0.7,12.73,47.84626,-54.09684
2019-02-04 11:10:00+00:00,370.6113,0.7,12.97,47.84626,-54.09684
2019-02-04 11:20:00+00:00,369.0446,0.7,15.35,47.84626,-54.09684
2019-02-04 11:30:00+00:00,368.568,0.7,15.27,47.84626,-54.09684
2019-02-04 11:40:00+00:00,374.3379,0.7,15.75,47.84626,-54.09684
2019-02-04 11:50:00+00:00,374.8862,0.7,14.88,47.84626,-54.09684
2019-02-04 12:00:00+00:00,372.4846,0.7,14.64,47.84626,-54.09684
2019-02-04 12:10:00+00:00,376.2413,0.7,14.72,47.84626,-54.09684
2019-02-04 12:20:00+00:00,374.473,0.7,15.2,47.84626,-54.09684
2019-02-04 12:30:00+00:00,368.1496,0.63,16.55,47.84626,-54.09684
2019-02-04 12:40:00+00:00,369.7896,0.65,16.55,47.84626,-54.09684
2019-02-04 12:50:00+00:00,369.0396,0.63,16.87,47.84626,-54.09684
2019-02-04 13:00:00+00:00,361.0129,0.6,14.96,47.84626,-54.09684
2019-02-04 13:10:00+00:00,358.3313,0.6,14.8,47.84626,-54.09684
2019-02-04 13:20:00+00:00,358.8362,0.6,14.96,47.84626,-54.09684
2019-02-04 13:30:00+00:00,353.123,0.6,14.88,47.84626,-54.09684
2019-02-04 13:40:00+00:00,345.0529,0.56,14.88,47.84626,-54.09684
2019-02-04 13:50:00+00:00,345.5214,0.7,14.88,47.84626,-54.09684
2019-02-04 14:00:00+00:00,340.778,0.6,14.72,47.84626,-54.09684
2019-02-04 14:10:00+00:00,328.1697,0.5,14.72,47.84626,-54.09684
2019-02-04 14:20:00+00:00,323.0397,0.5,14.88,47.84626,-54.09684
2019-02-04 14:30:00+00:00,319.418,0.58,15.2,47.84626,-54.09684
2019-02-04 14:40:00+00:00,307.2531,0.6,15.04,47.84626,-54.09684
2019-02-04 14:50:00+00:00,295.2196,0.64,14.96,47.84626,-54.09684
2019-02-04 15:00:00+00:00,292.9247,0.73,14.88,47.84626,-54.09684
2019-02-04 15:10:00+00:00,279.6647,0.78,14.96,47.84626,-54.09684
2019-02-04 15:20:00+00:00,260.4881,0.7,14.96,47.84626,-54.09684
2019-02-04 15:30:00+00:00,257.4698,0.72,14.96,47.84626,-54.09684
2019-02-04 15:40:00+00:00,259.7481,0.77,14.96,47.84626,-54.09684
2019-02-04 15:50:00+00:00,251.4114,0.8,14.88,47.84626,-54.09684
2019-02-04 16:00:00+00:00,243.4447,0.8,14.8,47.84626,-54.09684
2019-02-04 16:10:00+00:00,241.7148,0.8,14.88,47.84626,-54.09684
2019-02-04 16:20:00+00:00,232.3981,0.8,15.35,47.84626,-54.09684
2019-02-04 16:30:00+00:00,223.368,0.8,15.04,47.84626,-54.09684
2019-02-04 16:40:00+00:00,224.7148,0.8,15.2,47.84626,-54.09684
2019-02-04 16:50:00+00:00,224.6281,0.8,15.04,47.84626,-54.09684
2019-02-04 17:00:00+00:00,219.8147,0.81,15.11,47.84626,-54.09684
2019-02-04 17:10:00+00:00,214.9798,0.82,15.27,47.84626,-54.09684
2019-02-04 17:20:00+00:00,216.0115,0.83,14.88,47.84626,-54.09684
2019-02-04 17:30:00+00:00,216.5614,0.85,14.72,47.84626,-54.09684
2019-02-04 17:40:00+00:00,211.3431,0.82,14.72,47.84626,-54.09684
2019-02-04 17:50:00+00:00,207.0648,0.83,14.64,47.84626,-54.09684
2019-02-04 18:00:00+00:00,211.9014,0.87,14.56,47.84626,-54.09684
2019-02-04 18:10:00+00:00,211.3031,0.88,14.4,47.84626,-54.09684
2019-02-04 18:20:00+00:00,203.2465,0.9,14.48,47.84626,-54.09684
2019-02-04 18:30:00+00:00,209.6015,0.9,14.4,47.84626,-54.09684
2019-02-04 18:40:00+00:00,217.3697,0.9,14.4,47.84626,-54.09684
2019-02-04 18:50:00+00:00,213.7098,0.9,14.4,47.84626,-54.09684
2019-02-04 19:00:00+00:00,213.4848,0.91,14.32,47.84626,-54.09684
2019-02-04 19:10:00+00:00,224.4931,0.91,14.16,47.84626,-54.09684
2019-02-04 19:20:00+00:00,230.1615,0.91,14.16,47.84626,-54.09684
2019-02-04 19:30:00+00:00,230.6597,0.94,14.08,47.84626,-54.09684
2019-02-04 19:40:00+00:00,233.0764,0.97,14.08,47.84626,-54.09684
2019-02-04 19:50:00+00:00,237.2331,0.97,14.0,47.84626,-54.09684
2019-02-04 20:00:00+00:00,243.3764,0.98,13.84,47.84626,-54.09684
2019-02-04 20:10:00+00:00,244.0381,0.98,13.68,47.84626,-54.09684
2019-02-04 20:20:00+00:00,241.7464,0.98,13.68,47.84626,-54.09684
2019-02-04 20:30:00+00:00,246.5098,0.96,13.6,47.84626,-54.09684
2019-02-04 20:40:00+00:00,256.7514,0.94,13.6,47.84626,-54.09684
2019-02-04 20:50:00+00:00,260.4014,0.9,13.53,47.84626,-54.09684
2019-02-04 21:00:00+00:00,263.5114,0.9,13.37,47.84626,-54.09684
2019-02-04 21:10:00+00:00,271.7914,0.9,13.29,47.84626,-54.09684
2019-02-04 21:20:00+00:00,280.2364,0.9,13.29,47.84626,-54.09684
2019-02-04 21:30:00+00:00,288.373,0.89,13.21,47.84626,-54.09684
2019-02-04 21:40:00+00:00,292.753,0.9,13.21,47.84626,-54.09684
2019-02-04 21:50:00+00:00,296.9714,0.9,13.21,47.84626,-54.09684
2019-02-04 22:00:00+00:00,303.5413,0.9,13.13,47.84626,-54.09684
2019-02-04 22:10:00+00:00,308.6064,0.89,12.97,47.84626,-54.09684
2019-02-04 22:20:00+00:00,308.2931,0.87,13.05,47.84626,-54.09684
2019-02-04 22:30:00+00:00,316.418,0.86,13.05,47.84626,-54.09684
2019-02-04 22:40:00+00:00,327.5762,0.84,13.05,47.84626,-54.09684
2019-02-04 22:50:00+00:00,328.3614,0.8,13.05,47.84626,-54.09684
2019-02-04 23:00:00+00:00,325.8696,0.8,12.97,47.84626,-54.09684
2019-02-04 23:10:00+00:00,333.433,0.8,12.89,47.84626,-54.09684
2019-02-04 23:20:00+00:00,340.068,0.7,12.97,47.84626,-54.09684
2019-02-04 23:30:00+00:00,336.2762,0.5,12.97,47.84626,-54.09684
2019-02-04 23:40:00+00:00,332.7214,0.4,13.05,47.84626,-54.09684
2019-02-04 23:50:00+00:00,335.5063,0.4,13.05,47.84626,-54.09684
